Flag for Guyana Weather past 2 weeks in Georgetown, Guyana

Now
73 °F

Passing clouds.


Feels Like: 68 °F
Forecast: 77 / 84 °F
Wind: No wind

Location: Georgetown/Cheddi Jagan International Airport

Current Time: May 22, 2015 at 5:35:30 AM

Latest Report: May 22, 2015 at 5:00 AM


Visibility: N/A

Pressure: 29.95 "Hg

Humidity: 100%

Dew point: 73 °F

Location of GeorgetownLocation

Historic Weather in Georgetown — Graph

°F

Georgetown temperature yesterday

Maximum temperature yesterday: 84 °F (at 12:00 PM)
Minimum temperature yesterday: 75 °F (at 1:00 AM)
Average temperature yesterday: 79 °F

Past Weeks' High & Low Weather Summary

 TemperatureHumidityPressure
High91 °F (May 9, 1:00 PM)100% (May 8, 2:00 AM)30.01 "Hg (May 8, 2:00 AM)
Low70 °F (May 9, 6:00 AM)49% (May 8, 12:00 PM)29.83 "Hg (May 12, 3:00 PM)
Average78 °F88%29.93 "Hg
* Reported May 7 5:00 AM — May 22 1:00 AM, Georgetown, Weather by CustomWeather, © 2015

Note: Actual official high and low records may vary slightly from our data, if they occured in-between our weather recording intervals... More about our weather records

Advertising

Georgetown weather history for previous 24 hours

 ConditionsComfort  
Time TempWeatherWind HumidityBarometerVisibility
1:00 AM
Fri, May 22
75 °FPassing clouds.No wind100%29.95 "HgN/A
12:00 AM77 °FPassing clouds.No wind94%29.95 "HgN/A
11:00 PM
Thu, May 21
77 °FPassing clouds.No wind94%29.98 "HgN/A
10:00 PM75 °FPassing clouds.No wind100%29.98 "HgN/A
9:00 PM75 °FPassing clouds.5 mph100%29.95 "HgN/A
8:00 PM75 °FPartly cloudy.5 mph100%29.92 "HgN/A
7:00 PM77 °FPassing clouds.5 mph94%29.89 "HgN/A
6:00 PM79 °FScattered clouds.7 mph89%29.89 "HgN/A
5:00 PM79 °FPartly sunny.14 mph89%29.86 "HgN/A
4:00 PM81 °FPartly sunny.9 mph84%29.86 "HgN/A
3:00 PM81 °FThunderstorms. Broken clouds.14 mph89%29.86 "Hg6 mi
2:00 PM81 °FThunderstorms. Broken clouds.16 mph89%29.92 "Hg5 mi
1:00 PM82 °FSprinkles. Partly sunny.14 mph84%29.92 "Hg5 mi
12:00 PM84 °FPartly sunny.9 mph79%29.95 "HgN/A
11:00 AM81 °FSprinkles. Partly sunny.12 mph84%29.95 "Hg6 mi
10:00 AM81 °FSprinkles. Partly sunny.12 mph94%29.98 "Hg5 mi
9:00 AM82 °FPartly sunny.7 mph79%29.98 "HgN/A
8:00 AM81 °FPartly sunny.No wind89%29.95 "HgN/A
7:00 AM79 °FBroken clouds.No wind89%29.95 "HgN/A
5:00 AM75 °FFog.No wind94%29.92 "Hg1 mi
Weather by CustomWeather, © 2015

See weather overviewHow to use our weather pages